This is the latest recevied weather packets stored in our database for station/object ZS2JO. If no packets are shown the sender has not sent any weather packets the latest 1 day(s).
| Time | Temp. | Humidity | Pressure | Rain* | Wind** | Luminosity | Snow |
|---|---|---|---|---|---|---|---|
| 1778046949 | 14.44° C | 99% | 1007 hPa | 3.05 mm | - | 2 W/m² | - |
| 1778046342 | 13.89° C | 99% | 1007.5 hPa | 7.11 mm | - | 1 W/m² | - |
| 1778046038 | 13.89° C | 99% | 1008.1 hPa | 6.1 mm | - | 1 W/m² | - |
| 1778044830 | 13.89° C | 99% | 1008.1 hPa | 0.51 mm | - | 1 W/m² | - |
| 1778043619 | 13.89° C | 99% | 1007.9 hPa | 0 mm | - | 0 W/m² | - |
| 1778043315 | 13.89° C | 99% | 1007.9 hPa | 0 mm | - | 0 W/m² | - |
| 1778043012 | 13.89° C | 99% | 1007.6 hPa | 0 mm | - | 0 W/m² | - |
| 1778042710 | 13.89° C | 99% | 1007.8 hPa | 0 mm | - | 0 W/m² | - |
| 1778041501 | 13.89° C | 99% | 1006.9 hPa | 0 mm | - | 0 W/m² | - |
| 1778041198 | 13.89° C | 99% | 1006.9 hPa | 0 mm | - | 0 W/m² | - |
| 1778040896 | 13.89° C | 99% | 1007 hPa | 0 mm | - | 0 W/m² | - |
| 1778040593 | 13.89° C | 99% | 1006.8 hPa | 0 mm | - | 0 W/m² | - |
| 1778040291 | 13.89° C | 99% | 1007 hPa | 0 mm | - | 0 W/m² | - |
| 1778039986 | 13.89° C | 99% | 1007 hPa | 0 mm | - | 0 W/m² | - |
| 1778039684 | 13.89° C | 99% | 1006.5 hPa | 0 mm | - | 0 W/m² | - |
| 1778039380 | 13.89° C | 99% | 1006.3 hPa | 0 mm | - | 0 W/m² | - |
| 1778039078 | 13.89° C | 99% | 1005.9 hPa | 0 mm | - | 0 W/m² | - |
| 1778038775 | 13.89° C | 99% | 1006.2 hPa | 0 mm | - | 0 W/m² | - |
| 1778038472 | 13.89° C | 99% | 1006.4 hPa | 0 mm | - | 0 W/m² | - |
| 1778037866 | 14.44° C | 99% | 1005.5 hPa | 0.51 mm | - | 0 W/m² | - |
| 1778037562 | 14.44° C | 99% | 1005.6 hPa | 0.51 mm | - | 0 W/m² | - |
| 1778037260 | 14.44° C | 99% | 1005.2 hPa | 0.51 mm | - | 0 W/m² | - |
| 1778036352 | 14.44° C | 99% | 1008.8 hPa | 3.05 mm | - | 0 W/m² | - |
| 1778036049 | 14.44° C | 99% | 1008.9 hPa | 1.27 mm | - | 0 W/m² | - |
| 1778035443 | 14.44° C | 99% | 1008.9 hPa | 0 mm | - | 0 W/m² | - |
* Rain latest hour (hover to see other rain measurements)
** Current wind speed in m/s (hover to see current wind gust speed)